| time (UTC) | temp C | wind direction | speed KPH | gust KPH | rain 1hr cm | rain 24hr cm | rain mn cm | humidity % | barometer mb |
| 20260505062620 | 24 | 63 | 11.3 | 16.1 | 0.00 | 0.00 | 0.00 | 84 | 1019.6 |
| 20260505062118 | 24 | 158 | 3.2 | 17.7 | 0.00 | 0.00 | 0.00 | 84 | 1019.5 |
| 20260505061615 | 24 | 85 | 12.9 | 16.1 | 0.00 | 0.00 | 0.00 | 84 | 1019.5 |
| 20260505061113 | 24 | 89 | 9.7 | 12.9 | 0.00 | 0.00 | 0.00 | 84 | 1019.6 |
| 20260505060610 | 24 | 93 | 11.3 | 14.5 | 0.00 | 0.00 | 0.00 | 83 | 1019.7 |
| 20260505060107 | 24 | 154 | 8.0 | 17.7 | 0.00 | 0.00 | 0.00 | 83 | 1019.9 |
| 20260505055602 | 24 | 50 | 9.7 | 16.1 | 0.00 | 0.00 | 0.00 | 84 | 1020.0 |
| 20260505055059 | 24 | 128 | 4.8 | 12.9 | 0.00 | 0.00 | 0.00 | 83 | 1019.7 |
| 20260505054556 | 24 | 115 | 8.0 | 16.1 | 0.00 | 0.00 | 0.00 | 83 | 1020.0 |
| 20260505054055 | 24 | 141 | 14.5 | 17.7 | 0.00 | 0.00 | 0.00 | 83 | 1019.7 |
| 20260505053551 | 24 | 135 | 12.9 | 17.7 | 0.00 | 0.00 | 0.00 | 82 | 1020.0 |
| 20260505053048 | 25 | 105 | 11.3 | 22.5 | 0.00 | 0.00 | 0.00 | 82 | 1020.1 |
| 20260505052544 | 25 | 154 | 8.0 | 14.5 | 0.00 | 0.00 | 0.00 | 81 | 1020.1 |
| 20260505052042 | 25 | 33 | 4.8 | 14.5 | 0.00 | 0.00 | 0.00 | 81 | 1020.2 |
| 20260505051539 | 25 | 107 | 9.7 | 12.9 | 0.00 | 0.00 | 0.00 | 81 | 1020.3 |
| 20260505051037 | 25 | 81 | 11.3 | 14.5 | 0.00 | 0.00 | 0.00 | 82 | 1020.4 |
| 20260505050535 | 25 | 92 | 9.7 | 16.1 | 0.00 | 0.00 | 0.00 | 83 | 1020.5 |
| 20260505041503 | 25 | 91 | 9.7 | 14.5 | 0.00 | 0.00 | 0.00 | 82 | 1020.8 |
| 20260505041001 | 25 | 87 | 6.4 | 16.1 | 0.00 | 0.00 | 0.00 | 82 | 1020.9 |
| 20260505040458 | 25 | 66 | 11.3 | 17.7 | 0.00 | 0.00 | 0.00 | 83 | 1020.9 |
| 20260505035954 | 25 | 103 | 11.3 | 16.1 | 0.00 | 0.00 | 0.00 | 83 | 1020.9 |
| 20260505035450 | 25 | 92 | 12.9 | 22.5 | 0.00 | 0.00 | 0.00 | 83 | 1021.1 |
| 20260505034948 | 25 | 64 | 11.3 | 16.1 | 0.00 | 0.00 | 0.00 | 84 | 1021.2 |
| 20260505034444 | 25 | 86 | 8.0 | 12.9 | 0.00 | 0.00 | 0.00 | 84 | 1021.4 |
| 20260505033941 | 25 | 67 | 12.9 | 16.1 | 0.00 | 0.00 | 0.00 | 84 | 1021.2 |
| 20260505033437 | 25 | 72 | 9.7 | 16.1 | 0.00 | 0.00 | 0.00 | 84 | 1021.3 |
| 20260505032936 | 25 | 92 | 11.3 | 20.9 | 0.00 | 0.00 | 0.00 | 84 | 1021.2 |
| 20260505032433 | 25 | 69 | 12.9 | 20.9 | 0.00 | 0.00 | 0.00 | 84 | 1021.4 |
| 20260505031929 | 25 | 68 | 9.7 | 14.5 | 0.00 | 0.00 | 0.00 | 84 | 1021.2 |
| 20260505031426 | 25 | 95 | 11.3 | 14.5 | 0.00 | 0.00 | 0.00 | 84 | 1021.4 |
| 20260505030923 | 25 | 42 | 9.7 | 12.9 | 0.00 | 0.00 | 0.00 | 84 | 1021.3 |
| 20260505030419 | 25 | 201 | 8.0 | 22.5 | 0.00 | 0.00 | 0.00 | 84 | 1021.5 |
| 20260505025914 | 25 | 84 | 14.5 | 16.1 | 0.00 | 0.00 | 0.00 | 84 | 1021.4 |
| 20260505025412 | 25 | 151 | 12.9 | 17.7 | 0.00 | 0.00 | 0.00 | 84 | 1021.6 |
| 20260505024911 | 25 | 63 | 11.3 | 16.1 | 0.00 | 0.00 | 0.00 | 84 | 1021.4 |
| 20260505024408 | 25 | 67 | 8.0 | 16.1 | 0.00 | 0.00 | 0.00 | 84 | 1021.3 |
| 20260505023905 | 25 | 81 | 14.5 | 16.1 | 0.00 | 0.00 | 0.00 | 84 | 1021.5 |
| 20260505023402 | 25 | 301 | 4.8 | 14.5 | 0.00 | 0.00 | 0.00 | 84 | 1021.3 |
| 20260505022859 | 25 | 75 | 8.0 | 12.9 | 0.00 | 0.00 | 0.00 | 84 | 1021.3 |
| 20260505022356 | 25 | 59 | 11.3 | 16.1 | 0.00 | 0.00 | 0.00 | 83 | 1021.3 |
| 20260505021853 | 25 | 73 | 9.7 | 14.5 | 0.00 | 0.00 | 0.00 | 83 | 1021.2 |
| 20260505021349 | 25 | 49 | 6.4 | 12.9 | 0.00 | 0.00 | 0.00 | 83 | 1021.2 |
| 20260505020845 | 25 | 46 | 9.7 | 16.1 | 0.00 | 0.00 | 0.00 | 83 | 1021.2 |
| 20260505020341 | 25 | 67 | 12.9 | 14.5 | 0.00 | 0.00 | 0.00 | 83 | 1021.1 |
| 20260505015838 | 25 | 70 | 6.4 | 17.7 | 0.00 | 0.00 | 0.00 | 84 | 1020.9 |
| 20260505015335 | 25 | 70 | 12.9 | 16.1 | 0.00 | 0.00 | 0.00 | 84 | 1021.0 |
| 20260505014833 | 25 | 93 | 11.3 | 16.1 | 0.00 | 0.00 | 0.00 | 84 | 1021.0 |
| 20260505014330 | 25 | 65 | 9.7 | 11.3 | 0.00 | 0.00 | 0.00 | 85 | 1021.1 |
| 20260505013826 | 25 | 71 | 11.3 | 14.5 | 0.00 | 0.00 | 0.00 | 85 | 1021.0 |
| 20260505013323 | 25 | 105 | 9.7 | 12.9 | 0.00 | 0.00 | 0.00 | 86 | 1021.0 |
| 20260505012822 | 25 | 55 | 8.0 | 11.3 | 0.00 | 0.00 | 0.00 | 85 | 1020.8 |
| 20260505012319 | 25 | 147 | 6.4 | 14.5 | 0.00 | 0.00 | 0.00 | 85 | 1020.5 |
| 20260505011815 | 25 | 71 | 6.4 | 12.9 | 0.00 | 0.00 | 0.00 | 85 | 1020.8 |
| 20260505011312 | 25 | 99 | 6.4 | 11.3 | 0.00 | 0.00 | 0.00 | 85 | 1020.6 |
| 20260505010808 | 25 | 79 | 9.7 | 12.9 | 0.00 | 0.00 | 0.00 | 85 | 1020.5 |
| 20260505010304 | 25 | 205 | 0.0 | 4.8 | 0.00 | 0.00 | 0.00 | 85 | 1020.5 |
| 20260505005800 | 25 | 87 | 6.4 | 12.9 | 0.00 | 0.00 | 0.00 | 85 | 1020.6 |
| 20260505005257 | 25 | 113 | 6.4 | 16.1 | 0.00 | 0.00 | 0.00 | 85 | 1020.4 |
| 20260505004755 | 25 | 56 | 8.0 | 12.9 | 0.00 | 0.00 | 0.00 | 85 | 1020.2 |
| 20260505004250 | 25 | 141 | 11.3 | 17.7 | 0.00 | 0.00 | 0.00 | 85 | 1020.2 |
| 20260505003748 | 25 | 62 | 4.8 | 12.9 | 0.00 | 0.00 | 0.00 | 85 | 1020.3 |
| 20260505003246 | 25 | 72 | 9.7 | 14.5 | 0.00 | 0.00 | 0.00 | 84 | 1020.3 |
| 20260505002742 | 25 | 47 | 8.0 | 12.9 | 0.00 | 0.00 | 0.00 | 84 | 1020.2 |
| 20260505002239 | 25 | 97 | 9.7 | 12.9 | 0.00 | 0.00 | 0.00 | 84 | 1020.3 |
| 20260505001737 | 25 | 66 | 9.7 | 14.5 | 0.00 | 0.00 | 0.00 | 84 | 1020.2 |
| 20260505001234 | 25 | 106 | 4.8 | 16.1 | 0.00 | 0.00 | 0.00 | 83 | 1020.2 |
| 20260505000731 | 25 | 54 | 11.3 | 14.5 | 0.00 | 0.00 | 0.00 | 83 | 1020.2 |
| 20260505000229 | 25 | 69 | 6.4 | 12.9 | 0.00 | 0.00 | 0.00 | 82 | 1020.1 |
| 20260504235725 | 25 | 77 | 6.4 | 11.3 | 0.00 | 0.00 | 0.00 | 82 | 1020.1 |
| 20260504235221 | 25 | 115 | 6.4 | 16.1 | 0.00 | 0.00 | 0.00 | 82 | 1020.0 |
| 20260504234719 | 25 | 126 | 12.9 | 16.1 | 0.00 | 0.00 | 0.00 | 81 | 1020.1 |
| 20260504234216 | 25 | 113 | 4.8 | 9.7 | 0.00 | 0.00 | 0.00 | 81 | 1020.0 |
| 20260504233712 | 25 | 92 | 6.4 | 9.7 | 0.00 | 0.00 | 0.00 | 81 | 1019.9 |
| 20260504233208 | 25 | 75 | 9.7 | 11.3 | 0.00 | 0.00 | 0.00 | 81 | 1019.9 |
| 20260504232705 | 25 | 104 | 9.7 | 16.1 | 0.00 | 0.00 | 0.00 | 82 | 1019.8 |
| 20260504232202 | 25 | 223 | 6.4 | 14.5 | 0.00 | 0.00 | 0.00 | 82 | 1020.0 |
| 20260504231659 | 25 | 109 | 4.8 | 9.7 | 0.00 | 0.00 | 0.00 | 82 | 1019.8 |
| 20260504231155 | 25 | 234 | 6.4 | 11.3 | 0.00 | 0.00 | 0.00 | 82 | 1019.7 |
| 20260504230651 | 25 | 186 | 4.8 | 11.3 | 0.00 | 0.00 | 0.00 | 83 | 1020.1 |
| 20260504230150 | 25 | 65 | 8.0 | 12.9 | 0.00 | 0.00 | 0.00 | 83 | 1019.8 |
| 20260504225648 | 25 | 115 | 9.7 | 17.7 | 0.00 | 0.00 | 0.00 | 83 | 1019.8 |
| 20260504225144 | 26 | 130 | 4.8 | 6.4 | 0.00 | 0.00 | 0.00 | 82 | 1019.8 |
| 20260504224641 | 26 | 265 | 4.8 | 11.3 | 0.00 | 0.00 | 0.00 | 82 | 1019.8 |
| 20260504224137 | 26 | 49 | 8.0 | 16.1 | 0.00 | 0.00 | 0.00 | 82 | 1019.8 |
| 20260504223635 | 26 | 77 | 9.7 | 11.3 | 0.00 | 0.00 | 0.00 | 81 | 1019.7 |
| 20260504223131 | 26 | 100 | 6.4 | 11.3 | 0.00 | 0.00 | 0.00 | 81 | 1019.7 |
| 20260504222628 | 26 | 83 | 8.0 | 12.9 | 0.00 | 0.00 | 0.00 | 81 | 1019.6 |
| 20260504222125 | 26 | 129 | 8.0 | 16.1 | 0.00 | 0.00 | 0.00 | 80 | 1019.5 |
| 20260504221622 | 26 | 81 | 9.7 | 17.7 | 0.00 | 0.00 | 0.00 | 80 | 1019.5 |
| 20260504221119 | 26 | 69 | 8.0 | 12.9 | 0.00 | 0.00 | 0.00 | 80 | 1019.3 |
| 20260504220615 | 26 | 189 | 6.4 | 16.1 | 0.00 | 0.00 | 0.00 | 79 | 1019.5 |
| 20260504220113 | 26 | 129 | 16.1 | 20.9 | 0.00 | 0.00 | 0.00 | 79 | 1019.4 |
| 20260504215609 | 26 | 94 | 11.3 | 16.1 | 0.00 | 0.00 | 0.00 | 80 | 1019.3 |
| 20260504215107 | 26 | 125 | 9.7 | 20.9 | 0.00 | 0.00 | 0.00 | 80 | 1019.2 |
| 20260504214602 | 26 | 104 | 12.9 | 17.7 | 0.00 | 0.00 | 0.00 | 79 | 1019.0 |
| 20260504214059 | 27 | 96 | 12.9 | 20.9 | 0.00 | 0.00 | 0.00 | 78 | 1019.0 |
| 20260504213555 | 27 | 105 | 14.5 | 16.1 | 0.00 | 0.00 | 0.00 | 77 | 1019.0 |
| 20260504213052 | 27 | 104 | 11.3 | 20.9 | 0.00 | 0.00 | 0.00 | 76 | 1019.0 |
| 20260504212548 | 27 | 97 | 14.5 | 20.9 | 0.00 | 0.00 | 0.00 | 76 | 1019.0 |
| 20260504212046 | 27 | 161 | 11.3 | 16.1 | 0.00 | 0.00 | 0.00 | 76 | 1019.2 |
| 20260504211542 | 27 | 88 | 17.7 | 20.9 | 0.00 | 0.00 | 0.00 | 75 | 1019.1 |
| 20260504211039 | 27 | 121 | 16.1 | 17.7 | 0.00 | 0.00 | 0.00 | 75 | 1019.0 |
| 20260504210536 | 27 | 129 | 11.3 | 20.9 | 0.00 | 0.00 | 0.00 | 76 | 1019.0 |
| 20260504210033 | 27 | 125 | 12.9 | 22.5 | 0.00 | 0.00 | 0.00 | 75 | 1019.2 |
| 20260504205531 | 27 | 114 | 19.3 | 25.7 | 0.00 | 0.00 | 0.00 | 75 | 1019.1 |
| 20260504205029 | 27 | 159 | 11.3 | 22.5 | 0.00 | 0.00 | 0.00 | 76 | 1019.0 |
| 20260504204527 | 27 | 107 | 14.5 | 25.7 | 0.00 | 0.00 | 0.00 | 75 | 1018.9 |
| 20260504204026 | 27 | 85 | 6.4 | 24.1 | 0.00 | 0.00 | 0.00 | 75 | 1018.8 |
| 20260504203523 | 27 | 51 | 11.3 | 17.7 | 0.00 | 0.00 | 0.00 | 75 | 1019.1 |
| 20260504203020 | 27 | 145 | 20.9 | 25.7 | 0.00 | 0.00 | 0.00 | 74 | 1018.9 |
| 20260504202516 | 27 | 152 | 8.0 | 16.1 | 0.00 | 0.00 | 0.00 | 74 | 1019.1 |
| 20260504202013 | 27 | 132 | 14.5 | 24.1 | 0.00 | 0.00 | 0.00 | 74 | 1019.0 |
| 20260504201510 | 27 | 218 | 17.7 | 25.7 | 0.00 | 0.00 | 0.00 | 73 | 1019.2 |
| 20260504201008 | 28 | 79 | 11.3 | 24.1 | 0.00 | 0.00 | 0.00 | 72 | 1019.3 |
| 20260504200504 | 28 | 98 | 17.7 | 30.6 | 0.00 | 0.00 | 0.00 | 72 | 1019.1 |
| 20260504200000 | 28 | 73 | 20.9 | 25.7 | 0.00 | 0.00 | 0.00 | 72 | 1018.9 |
| 20260504195456 | 28 | 115 | 24.1 | 30.6 | 0.00 | 0.00 | 0.00 | 72 | 1019.1 |
| 20260504194953 | 28 | 124 | 14.5 | 33.8 | 0.00 | 0.00 | 0.00 | 72 | 1019.2 |
| 20260504194449 | 28 | 56 | 17.7 | 27.4 | 0.00 | 0.00 | 0.00 | 72 | 1019.2 |
| 20260504193945 | 28 | 109 | 22.5 | 29.0 | 0.00 | 0.00 | 0.00 | 70 | 1019.2 |
| 20260504193443 | 28 | 136 | 17.7 | 24.1 | 0.00 | 0.00 | 0.00 | 72 | 1019.2 |
| 20260504192941 | 28 | 99 | 25.7 | 30.6 | 0.00 | 0.00 | 0.00 | 71 | 1019.3 |
| 20260504192438 | 28 | 117 | 20.9 | 33.8 | 0.00 | 0.00 | 0.00 | 71 | 1019.5 |
| 20260504191937 | 28 | 113 | 19.3 | 27.4 | 0.00 | 0.00 | 0.00 | 71 | 1019.4 |
| 20260504191435 | 28 | 123 | 24.1 | 30.6 | 0.00 | 0.00 | 0.00 | 71 | 1019.5 |
| 20260504190935 | 28 | 103 | 19.3 | 35.4 | 0.00 | 0.00 | 0.00 | 71 | 1019.5 |
| 20260504190431 | 28 | 105 | 19.3 | 29.0 | 0.00 | 0.00 | 0.00 | 73 | 1019.4 |
| 20260504185928 | 28 | 66 | 11.3 | 35.4 | 0.00 | 0.00 | 0.00 | 71 | 1019.3 |
| 20260504185426 | 29 | 110 | 25.7 | 33.8 | 0.00 | 0.00 | 0.00 | 70 | 1019.3 |
| 20260504184921 | 29 | 93 | 24.1 | 33.8 | 0.00 | 0.00 | 0.00 | 70 | 1019.6 |
| 20260504184417 | 29 | 126 | 12.9 | 30.6 | 0.00 | 0.00 | 0.00 | 71 | 1019.5 |
| 20260504183913 | 28 | 109 | 30.6 | 38.6 | 0.00 | 0.00 | 0.00 | 69 | 1019.5 |
| 20260504183411 | 29 | 117 | 19.3 | 37.0 | 0.00 | 0.00 | 0.00 | 69 | 1019.6 |
| 20260504182908 | 29 | 93 | 20.9 | 27.4 | 0.00 | 0.00 | 0.00 | 69 | 1019.3 |
| 20260504182405 | 29 | 153 | 17.7 | 27.4 | 0.00 | 0.00 | 0.00 | 69 | 1019.8 |
| 20260504181902 | 29 | 88 | 22.5 | 35.4 | 0.00 | 0.00 | 0.00 | 68 | 1019.5 |
| 20260504181359 | 28 | 91 | 24.1 | 35.4 | 0.00 | 0.00 | 0.00 | 69 | 1019.7 |
| 20260504180858 | 30 | 130 | 32.2 | 35.4 | 0.00 | 0.00 | 0.00 | 65 | 1019.8 |
| 20260504180356 | 30 | 153 | 24.1 | 30.6 | 0.00 | 0.00 | 0.00 | 68 | 1020.0 |
| 20260504175854 | 29 | 121 | 20.9 | 35.4 | 0.00 | 0.00 | 0.00 | 68 | 1019.8 |
| 20260504175350 | 29 | 114 | 22.5 | 33.8 | 0.00 | 0.00 | 0.00 | 67 | 1020.0 |
| 20260504174849 | 29 | 133 | 29.0 | 37.0 | 0.00 | 0.00 | 0.00 | 66 | 1020.0 |
| 20260504174346 | 29 | 96 | 24.1 | 33.8 | 0.00 | 0.00 | 0.00 | 65 | 1020.1 |
| 20260504173843 | 30 | 156 | 22.5 | 37.0 | 0.00 | 0.00 | 0.00 | 65 | 1020.0 |
| 20260504173340 | 30 | 115 | 35.4 | 38.6 | 0.00 | 0.00 | 0.00 | 63 | 1020.1 |
| 20260504172837 | 30 | 126 | 29.0 | 37.0 | 0.00 | 0.00 | 0.00 | 63 | 1020.0 |
| 20260504172333 | 29 | 118 | 25.7 | 38.6 | 0.00 | 0.00 | 0.00 | 60 | 1020.2 |
| 20260504171829 | 30 | 102 | 20.9 | 35.4 | 0.00 | 0.00 | 0.00 | 59 | 1020.2 |
| 20260504171326 | 30 | 83 | 17.7 | 25.7 | 0.00 | 0.00 | 0.00 | 60 | 1020.4 |
| 20260504170824 | 29 | 157 | 22.5 | 30.6 | 0.00 | 0.00 | 0.00 | 59 | 1020.4 |
| 20260504170320 | 30 | 91 | 27.4 | 33.8 | 0.00 | 0.00 | 0.00 | 59 | 1020.7 |
| 20260504160238 | 30 | 110 | 22.5 | 35.4 | 0.00 | 0.00 | 0.00 | 63 | 1020.6 |
| 20260504150704 | 29 | 161 | 19.3 | 33.8 | 0.00 | 0.00 | 0.00 | 67 | 1021.1 |
| 20260504150201 | 29 | 123 | 22.5 | 43.5 | 0.00 | 0.00 | 0.00 | 66 | 1020.8 |
| 20260504141130 | 29 | 68 | 17.7 | 37.0 | 0.00 | 0.00 | 0.00 | 66 | 1021.1 |
| 20260504140626 | 29 | 96 | 25.7 | 33.8 | 0.00 | 0.00 | 0.00 | 68 | 1021.0 |
| 20260504140122 | 29 | 81 | 27.4 | 40.2 | 0.00 | 0.00 | 0.00 | 68 | 1021.1 |
| 20260504130550 | 28 | 127 | 17.7 | 33.8 | 0.00 | 0.00 | 0.00 | 68 | 1020.9 |
| 20260504110438 | 25 | 79 | 9.7 | 16.1 | 0.00 | 0.00 | 0.00 | 79 | 1020.6 |
| 20260504100401 | 24 | 94 | 11.3 | 24.1 | 0.00 | 0.00 | 0.00 | 81 | 1020.1 |
| 20260504081754 | 23 | 126 | 11.3 | 16.1 | 0.00 | 0.00 | 0.00 | 84 | 1019.6 |
| 20260504081250 | 23 | 62 | 16.1 | 17.7 | 0.00 | 0.00 | 0.00 | 84 | 1019.7 |
| 20260504080747 | 23 | 125 | 8.0 | 16.1 | 0.00 | 0.00 | 0.00 | 84 | 1019.6 |
| 20260504080243 | 23 | 68 | 11.3 | 20.9 | 0.00 | 0.00 | 0.00 | 84 | 1019.5 |
| 20260504070211 | 24 | 173 | 11.3 | 17.7 | 0.00 | 0.00 | 0.00 | 84 | 1019.5 |